Location: Newark
(12.4436°N, 0.6167°W)
Time: 16:17:07
(UTC+00:00)

Vanguard 2 - Pass Details

Date: 09 December 2019
Orbit: 553 x 2938 km, 32.9° (Epoch: 18 January)

Event Time Altitude Azimuth Distance (km) Brightness Sun altitude
Rises 23:13:25 0° 236° (SW) 4,657 - -75.7°
Reaches altitude 10° 23:16:01 10° 235° (SW) 3,938 - -76.1°
Maximum altitude 23:27:19 89° 147° (SSE) 2,331 - -77.7°
Drops below altitude 10° 23:44:36 10° 58° (ENE) 5,715 - -79.3°
Sets 23:49:16 0° 58° (ENE) 6,788 - -79.5°
